Keahole Point, HI

5:08 PM HST on October 18, 2019 (GMT -1000)
Kona International At Keahole

Weather History for PHKO - August, 2019

Change the Weather History Date:

Friday, August 23, 2019

  Actual Average Record
Temperature  
Mean Temperature 82 °F -  
Max Temperature 87 °F 84 °F 92 °F (1982)
Min Temperature 78 °F 73 °F 71 °F (1983)
Cooling Degree Days 18    
Growing Degree Days 32 (Base 50)    
Moisture  
Dew Point 73 °F    
Average Humidity 74    
Maximum Humidity 90    
Minimum Humidity 61    
Precipitation  
Precipitation 0.00 in - - ()
Sea Level Pressure  
Sea Level Pressure 29.91 in    
Wind  
Wind Speed 7 mph ()    
Max Wind Speed 12 mph    
Max Gust Speed -    
Visibility 10.0 miles    
Events Rain    
Averages and records for this station are not official NWS values.
T = Trace of Precipitation, MM = Missing Value Source: Averaged Metar Reports

Daily Weather History Graph

Daily Weather History Graph

Search for Another Location

Airport or City:

Astronomy

Aug. 23, 2019 Rise Set
Actual Time 6:06 AM HST 6:46 PM HST
Civil Twilight 5:44 AM HST 7:09 PM HST
Nautical Twilight 5:17 AM HST 7:35 PM HST
Astronomical Twilight 4:50 AM HST 8:02 PM HST
Moon No Moon Rise 12:54 PM HST (8/23)
Length of Visible Light 13h 25m
Length of Day
12h 39m
Waning Gibbous, 47% of the Moon is Illuminated
Aug 23
Waning Gibbous
Aug 30
New
Sep 5
First Quarter
Sep 13
Full
Sep 21
Last Quarter

Hourly Weather History & Observations

Time (HST) Temp. Heat Index Dew Point Humidity Pressure Visibility Wind Dir Wind Speed Gust Speed Precip Events Conditions
12:23 AM 80.1 °F 83.8 °F 72.0 °F 76% 29.92 in 10.0 mi East 6.9 mph - N/A   Mostly Cloudy
1:11 AM 80.1 °F 84.2 °F 73.0 °F 79% 29.89 in 10.0 mi ESE 8.1 mph - 0.00 in   Mostly Cloudy
1:53 AM 80.1 °F 84.2 °F 73.0 °F 79% 29.89 in 10.0 mi SE 5.8 mph - 0.00 in   Scattered Clouds
2:40 AM 79.0 °F - 73.9 °F 84% 29.88 in 10.0 mi SE 9.2 mph - 0.00 in Rain Light Rain
2:53 AM 78.1 °F - 73.9 °F 87% 29.88 in 10.0 mi SE 10.4 mph - 0.00 in Rain Light Rain
3:53 AM 78.1 °F - 75.0 °F 90% 29.88 in 10.0 mi ESE 8.1 mph - 0.00 in   Mostly Cloudy
4:03 AM 78.1 °F - 75.0 °F 90% 29.87 in 10.0 mi ESE 6.9 mph - N/A   Mostly Cloudy
4:53 AM 79.0 °F - 73.9 °F 84% 29.88 in 10.0 mi SE 6.9 mph - N/A   Overcast
5:53 AM 78.1 °F - 73.0 °F 84% 29.90 in 10.0 mi ESE 6.9 mph - N/A   Mostly Cloudy
6:53 AM 78.1 °F - 73.9 °F 87% 29.91 in 10.0 mi ESE 5.8 mph - N/A   Scattered Clouds
7:53 AM 81.0 °F 86.2 °F 73.9 °F 79% 29.93 in 10.0 mi SE 4.6 mph - N/A   Scattered Clouds
8:53 AM 82.9 °F 88.8 °F 73.0 °F 72% 29.93 in 10.0 mi South 4.6 mph - N/A   Scattered Clouds
9:53 AM 84.9 °F 90.7 °F 72.0 °F 65% 29.93 in 10.0 mi SSW 9.2 mph - N/A   Clear
10:53 AM 86.0 °F 93.0 °F 73.0 °F 65% 29.92 in 10.0 mi SSW 9.2 mph - N/A   Scattered Clouds
11:53 AM 87.1 °F 94.5 °F 73.0 °F 63% 29.92 in 10.0 mi SSW 9.2 mph - N/A   Scattered Clouds
12:53 PM 87.1 °F 93.6 °F 72.0 °F 61% 29.90 in 10.0 mi SW 11.5 mph - N/A   Scattered Clouds
1:53 PM 87.1 °F 93.6 °F 72.0 °F 61% 29.88 in 10.0 mi WSW 11.5 mph - N/A   Scattered Clouds
2:53 PM 87.1 °F 93.6 °F 72.0 °F 61% 29.88 in 10.0 mi WSW 10.4 mph - N/A   Scattered Clouds
3:53 PM 86.0 °F 92.2 °F 72.0 °F 63% 29.88 in 10.0 mi WSW 10.4 mph - N/A   Scattered Clouds
4:53 PM 86.0 °F 92.2 °F 72.0 °F 63% 29.88 in 10.0 mi WSW 8.1 mph - N/A   Mostly Cloudy
5:53 PM 84.0 °F 90.2 °F 73.0 °F 69% 29.88 in 10.0 mi WSW 6.9 mph - N/A   Scattered Clouds
6:53 PM 82.9 °F 88.0 °F 72.0 °F 69% 29.91 in 10.0 mi SSW 5.8 mph - N/A   Mostly Cloudy
7:53 PM 82.9 °F 88.8 °F 73.0 °F 72% 29.93 in 10.0 mi SW 3.5 mph - N/A   Mostly Cloudy
8:53 PM 82.9 °F 88.8 °F 73.0 °F 72% 29.94 in 10.0 mi SW 4.6 mph - N/A   Mostly Cloudy
9:53 PM 82.9 °F 88.8 °F 73.0 °F 72% 29.95 in 10.0 mi SSW 6.9 mph - N/A   Overcast
10:53 PM 82.0 °F 87.4 °F 73.0 °F 74% 29.95 in 10.0 mi South 5.8 mph - N/A   Overcast
11:53 PM 82.0 °F 86.7 °F 72.0 °F 71% 29.94 in 10.0 mi SE 4.6 mph - N/A   Overcast